Weather History for KFTW - February, 2014

Change the Weather History Date:

Sunday, February 9, 2014

  Actual Average Record
Temperature  
Mean Temperature 41 °F -  
Max Temperature 46 °F 56 °F 75 °F (1999)
Min Temperature 35 °F 37 °F 12 °F (2011)
Degree Days  
Heating Degree Days 24    
Moisture  
Dew Point 39 °F    
Average Humidity 95    
Maximum Humidity 100    
Minimum Humidity 81    
Precipitation  
Precipitation 0.00 in - - ()
Sea Level Pressure  
Sea Level Pressure 30.07 in    
Wind  
Wind Speed 6 mph (ENE)    
Max Wind Speed 16 mph    
Max Gust Speed 21 mph    
Visibility 2 miles    
Events Fog    
Averages and records for this station are not official NWS values.
T = Trace of Precipitation, MM = Missing Value Source: NWS Daily Summary

Daily Weather History Graph

Daily Weather History Graph

Search for Another Location

Airport or City:

Trip Planner

Search our weather history database for the weather conditions in past years. The results will help you decide how hot, cold, wet, or windy it might be!

Date:

Astronomy

Feb. 09, 2014 Rise Set
Actual Time 7:18 AM CST 6:09 PM CST
Civil Twilight 6:52 AM CST 6:35 PM CST
Nautical Twilight 6:23 AM CST 7:04 PM CST
Astronomical Twilight 5:54 AM CST 7:33 PM CST
Moon 1:56 PM CST (2/9) 3:18 AM CST (2/9)
Length of Visible Light 11h 42m
Length of Day
10h 51m
Waxing Gibbous, 77% of the Moon is Illuminated
Feb 9
Waxing Gibbous
Feb 14
Full
Feb 22
Last Quarter
Mar 1
New
Mar 8
First Quarter

Hourly Weather History & Observations

Time (CST) Temp. Windchill Dew Point Humidity Pressure Visibility Wind Dir Wind Speed Gust Speed Precip Events Conditions
12:53 AM 41.0 °F 38.0 °F 39.0 °F 93% 30.03 in 6.0 mi ESE 4.6 mph - N/A   Clear
1:53 AM 39.0 °F 35.7 °F 37.9 °F 96% 30.03 in 4.0 mi East 4.6 mph - N/A   Clear
2:36 AM 39.2 °F 37.0 °F 37.4 °F 93% 30.02 in 2.5 mi East 3.5 mph - N/A   Clear
2:53 AM 37.9 °F 33.5 °F 37.0 °F 97% 30.02 in 1.2 mi East 5.8 mph - N/A   Partly Cloudy
2:57 AM 37.4 °F 32.8 °F 37.4 °F 100% 30.02 in 0.2 mi East 5.8 mph - N/A Fog Fog
3:05 AM 37.4 °F 32.8 °F 37.4 °F 100% 30.02 in 0.2 mi East 5.8 mph - N/A Fog Fog
3:53 AM 39.0 °F 34.0 °F 39.0 °F 100% 30.01 in 0.2 mi East 6.9 mph - N/A Fog Fog
4:53 AM 39.9 °F 35.8 °F 39.9 °F 100% 30.01 in 0.2 mi ESE 5.8 mph - N/A Fog Fog
5:53 AM 39.9 °F 37.8 °F 39.9 °F 100% 30.03 in 0.2 mi NE 3.5 mph - N/A Fog Fog
6:53 AM 39.9 °F 35.8 °F 39.9 °F 100% 30.05 in 0.2 mi ENE 5.8 mph - N/A Fog Fog
7:33 AM 39.2 °F 35.9 °F 39.2 °F 100% 30.06 in 0.2 mi NE 4.6 mph - N/A Fog Fog
7:53 AM 39.9 °F 35.1 °F 39.9 °F 100% 30.09 in 0.1 mi NE 6.9 mph - N/A Fog Fog
8:53 AM 39.9 °F 35.1 °F 39.9 °F 100% 30.06 in 0.1 mi ESE 6.9 mph - N/A Fog Fog
9:53 AM 41.0 °F 36.4 °F 39.9 °F 96% 30.08 in 0.2 mi East 6.9 mph - N/A Fog Fog
10:06 AM 41.0 °F 39.0 °F 41.0 °F 100% 30.09 in 0.5 mi East 3.5 mph - N/A Fog Fog
10:44 AM 42.8 °F 40.1 °F 41.0 °F 93% 30.11 in 1.0 mi ENE 4.6 mph - N/A   Overcast
10:53 AM 42.1 °F 40.2 °F 42.1 °F 100% 30.10 in 1.2 mi Variable 3.5 mph - N/A   Overcast
11:31 AM 42.8 °F 39.3 °F 41.0 °F 93% 30.08 in 2.0 mi ENE 5.8 mph - N/A   Overcast
11:53 AM 43.0 °F 39.5 °F 42.1 °F 97% 30.09 in 2.0 mi ENE 5.8 mph - N/A   Overcast
12:35 PM 44.6 °F 42.2 °F 42.8 °F 93% 30.06 in 2.5 mi ESE 4.6 mph - N/A   Overcast
12:48 PM 44.6 °F 43.1 °F 41.0 °F 87% 30.05 in 3.0 mi ESE 3.5 mph - N/A   Overcast
12:53 PM 44.1 °F 41.5 °F 42.1 °F 93% 30.05 in 3.0 mi ESE 4.6 mph - N/A   Overcast
1:53 PM 45.0 °F - 41.0 °F 86% 30.05 in 3.0 mi Calm Calm - N/A   Overcast
2:53 PM 46.0 °F 43.9 °F 41.0 °F 83% 30.04 in 4.0 mi North 4.6 mph - N/A   Haze
3:53 PM 45.0 °F 40.1 °F 39.9 °F 82% 30.06 in 5.0 mi North 9.2 mph - N/A   Haze
4:53 PM 44.1 °F 38.1 °F 39.9 °F 85% 30.06 in 5.0 mi NNE 11.5 mph - N/A   Overcast
5:04 PM 44.6 °F 39.2 °F 39.2 °F 81% 30.06 in 6.0 mi NNE 10.4 mph - N/A   Overcast
5:53 PM 41.0 °F 33.9 °F 39.0 °F 93% 30.08 in 6.0 mi North 12.7 mph - N/A   Overcast
6:02 PM 41.0 °F 33.5 °F 39.2 °F 93% 30.08 in 4.0 mi North 13.8 mph - N/A   Overcast
6:34 PM 39.2 °F 30.5 °F 39.2 °F 100% 30.10 in 2.5 mi North 16.1 mph - N/A   Overcast
6:53 PM 39.0 °F 31.0 °F 37.9 °F 96% 30.11 in 3.0 mi North 13.8 mph - N/A   Overcast
7:53 PM 37.9 °F 30.5 °F 37.0 °F 97% 30.11 in 5.0 mi NNE 11.5 mph - N/A   Overcast
8:53 PM 37.0 °F 28.9 °F 36.0 °F 96% 30.12 in 4.0 mi North 12.7 mph - N/A   Overcast
9:53 PM 37.0 °F 28.5 °F 35.1 °F 93% 30.15 in 4.0 mi NNE 13.8 mph - N/A   Overcast
10:53 PM 36.0 °F 27.1 °F 35.1 °F 97% 30.15 in 5.0 mi North 13.8 mph - N/A   Overcast
11:53 PM 35.1 °F 26.9 °F 34.0 °F 96% 30.14 in 3.0 mi NNE 11.5 mph 20.7 mph N/A   Overcast